Time,TemperatureF,DewpointF,PressureIn,WindDirection,WindDirectionDegrees,WindSpeedMPH,WindSpeedGustMPH,Humidity,HourlyPrecipIn,Conditions,Clouds,dailyrainin,SoftwareType,DateUTC
2013-01-09 00:02:00,42.5,34.1,30.13,WNW,296,8.0,9.0,72,0.00,,,0.00,Wunderground v.1.15,2013-01-09 06:02:00,
2013-01-09 00:07:00,42.4,34.0,30.13,WNW,290,8.0,9.0,72,0.00,,,0.00,Wunderground v.1.15,2013-01-09 06:07:00,
2013-01-09 00:13:00,42.2,34.2,30.14,WNW,300,8.0,9.0,73,0.00,,,0.00,Wunderground v.1.15,2013-01-09 06:13:00,
2013-01-09 00:19:00,42.2,34.2,30.13,West,281,8.0,9.0,73,0.00,,,0.00,Wunderground v.1.15,2013-01-09 06:19:00,
2013-01-09 00:25:00,42.1,34.4,30.14,WNW,290,9.0,9.0,74,0.00,,,0.00,Wunderground v.1.15,2013-01-09 06:25:00,
2013-01-09 00:30:00,42.2,34.5,30.13,WNW,302,9.0,9.0,74,0.00,,,0.00,Wunderground v.1.15,2013-01-09 06:30:00,
2013-01-09 00:36:00,42.2,34.8,30.14,WNW,284,9.0,16.0,75,0.00,,,0.00,Wunderground v.1.15,2013-01-09 06:36:00,
2013-01-09 00:42:00,42.3,34.9,30.15,WNW,302,10.0,16.0,75,0.00,,,0.00,Wunderground v.1.15,2013-01-09 06:42:00,
2013-01-09 00:48:00,42.1,34.7,30.15,WNW,292,10.0,16.0,75,0.00,,,0.00,Wunderground v.1.15,2013-01-09 06:48:00,
2013-01-09 00:54:00,41.8,34.8,30.15,WNW,289,8.0,16.0,76,0.00,,,0.00,Wunderground v.1.15,2013-01-09 06:54:00,
2013-01-09 01:00:00,41.5,34.5,30.15,WNW,296,7.0,16.0,76,0.00,,,0.00,Wunderground v.1.15,2013-01-09 07:00:00,
2013-01-09 01:06:00,41.5,34.8,30.16,NW,304,7.0,16.0,77,0.00,,,0.00,Wunderground v.1.15,2013-01-09 07:06:00,
2013-01-09 01:11:00,41.2,34.9,30.16,WNW,296,7.0,16.0,78,0.00,,,0.00,Wunderground v.1.15,2013-01-09 07:11:00,
2013-01-09 01:17:00,41.2,34.9,30.17,NW,321,7.0,16.0,78,0.00,,,0.00,Wunderground v.1.15,2013-01-09 07:17:00,
2013-01-09 01:23:00,40.6,34.6,30.17,NW,309,6.0,16.0,79,0.00,,,0.00,Wunderground v.1.15,2013-01-09 07:23:00,
2013-01-09 01:29:00,40.9,34.9,30.17,WNW,300,6.0,16.0,79,0.00,,,0.00,Wunderground v.1.15,2013-01-09 07:29:00,
2013-01-09 01:35:00,40.3,34.3,30.17,NW,309,6.0,16.0,79,0.00,,,0.00,Wunderground v.1.15,2013-01-09 07:35:00,
2013-01-09 01:41:00,40.2,34.5,30.17,NW,304,6.0,16.0,80,0.00,,,0.00,Wunderground v.1.15,2013-01-09 07:41:00,
2013-01-09 01:47:00,40.2,34.5,30.17,NW,309,6.0,16.0,80,0.00,,,0.00,Wunderground v.1.15,2013-01-09 07:47:00,
2013-01-09 01:53:00,40.1,34.4,30.18,NW,313,6.0,16.0,80,0.00,,,0.00,Wunderground v.1.15,2013-01-09 07:53:00,
2013-01-09 01:58:00,40.4,35.0,30.19,NW,319,6.0,16.0,81,0.00,,,0.00,Wunderground v.1.15,2013-01-09 07:58:00,
2013-01-09 02:04:00,40.7,35.0,30.19,NW,317,6.0,16.0,80,0.00,,,0.00,Wunderground v.1.15,2013-01-09 08:04:00,
2013-01-09 02:10:00,40.6,34.9,30.19,NW,313,5.0,16.0,80,0.00,,,0.00,Wunderground v.1.15,2013-01-09 08:10:00,
2013-01-09 02:16:00,40.2,34.5,30.19,NW,313,5.0,16.0,80,0.00,,,0.00,Wunderground v.1.15,2013-01-09 08:16:00,
2013-01-09 02:21:00,39.8,34.4,30.19,NW,311,4.0,16.0,81,0.00,,,0.00,Wunderground v.1.15,2013-01-09 08:21:00,
2013-01-09 02:27:00,39.5,34.2,30.20,NW,311,4.0,16.0,81,0.00,,,0.00,Wunderground v.1.15,2013-01-09 08:27:00,
2013-01-09 02:33:00,39.2,34.2,30.20,NW,310,4.0,16.0,82,0.00,,,0.00,Wunderground v.1.15,2013-01-09 08:33:00,
2013-01-09 02:39:00,39.2,34.2,30.20,WNW,303,5.0,16.0,82,0.00,,,0.00,Wunderground v.1.15,2013-01-09 08:39:00,
2013-01-09 02:44:00,39.2,34.2,30.20,NW,304,5.0,16.0,82,0.00,,,0.00,Wunderground v.1.15,2013-01-09 08:44:00,
2013-01-09 02:50:00,38.8,34.1,30.21,NW,304,4.0,16.0,83,0.00,,,0.00,Wunderground v.1.15,2013-01-09 08:50:00,
2013-01-09 02:56:00,38.7,34.0,30.21,NW,304,4.0,16.0,83,0.00,,,0.00,Wunderground v.1.15,2013-01-09 08:56:00,
2013-01-09 03:01:00,38.7,34.0,30.21,WNW,303,5.0,16.0,83,0.00,,,0.00,Wunderground v.1.15,2013-01-09 09:01:00,
2013-01-09 03:07:00,38.8,34.1,30.22,WNW,301,5.0,16.0,83,0.00,,,0.00,Wunderground v.1.15,2013-01-09 09:07:00,
2013-01-09 03:13:00,38.9,34.2,30.22,WNW,292,5.0,16.0,83,0.00,,,0.00,Wunderground v.1.15,2013-01-09 09:13:00,
2013-01-09 03:19:00,38.9,34.2,30.22,WNW,297,6.0,16.0,83,0.00,,,0.00,Wunderground v.1.15,2013-01-09 09:19:00,
2013-01-09 03:25:00,39.1,34.1,30.22,WNW,300,6.0,16.0,82,0.00,,,0.00,Wunderground v.1.15,2013-01-09 09:25:00,
2013-01-09 03:31:00,39.1,33.8,30.22,WNW,297,6.0,16.0,81,0.00,,,0.00,Wunderground v.1.15,2013-01-09 09:31:00,
2013-01-09 03:37:00,39.0,33.7,30.23,WNW,293,6.0,16.0,81,0.00,,,0.00,Wunderground v.1.15,2013-01-09 09:37:00,
2013-01-09 03:43:00,38.8,33.8,30.23,WNW,293,5.0,16.0,82,0.00,,,0.00,Wunderground v.1.15,2013-01-09 09:43:00,
2013-01-09 03:48:00,38.6,33.6,30.23,NW,309,5.0,16.0,82,0.00,,,0.00,Wunderground v.1.15,2013-01-09 09:48:00,
2013-01-09 03:54:00,38.5,33.5,30.23,NW,306,5.0,16.0,82,0.00,,,0.00,Wunderground v.1.15,2013-01-09 09:54:00,
2013-01-09 04:00:00,38.1,33.1,30.23,NW,306,5.0,5.0,82,0.00,,,0.00,Wunderground v.1.15,2013-01-09 10:00:00,
2013-01-09 04:06:00,37.9,33.2,30.23,NW,306,5.0,16.0,83,0.00,,,0.00,Wunderground v.1.15,2013-01-09 10:06:00,
2013-01-09 04:12:00,37.9,33.5,30.23,WNW,296,6.0,16.0,84,0.00,,,0.00,Wunderground v.1.15,2013-01-09 10:12:00,
2013-01-09 04:18:00,37.9,33.2,30.24,NW,317,6.0,16.0,83,0.00,,,0.00,Wunderground v.1.15,2013-01-09 10:18:00,
2013-01-09 04:24:00,37.9,33.2,30.24,NW,309,6.0,16.0,83,0.00,,,0.00,Wunderground v.1.15,2013-01-09 10:24:00,
2013-01-09 04:29:00,38.0,33.3,30.24,NW,317,5.0,16.0,83,0.00,,,0.00,Wunderground v.1.15,2013-01-09 10:29:00,
2013-01-09 04:35:00,37.6,32.9,30.24,WNW,302,5.0,16.0,83,0.00,,,0.00,Wunderground v.1.15,2013-01-09 10:35:00,
2013-01-09 04:41:00,37.2,32.8,30.24,WNW,300,6.0,16.0,84,0.00,,,0.00,Wunderground v.1.15,2013-01-09 10:41:00,
2013-01-09 04:47:00,37.2,32.8,30.24,WNW,302,6.0,16.0,84,0.00,,,0.00,Wunderground v.1.15,2013-01-09 10:47:00,
2013-01-09 04:52:00,37.1,32.7,30.25,NW,304,5.0,16.0,84,0.00,,,0.00,Wunderground v.1.15,2013-01-09 10:52:00,
2013-01-09 04:58:00,37.0,32.6,30.25,NW,310,5.0,16.0,84,0.00,,,0.00,Wunderground v.1.15,2013-01-09 10:58:00,
2013-01-09 05:04:00,36.6,32.2,30.25,WNW,302,5.0,16.0,84,0.00,,,0.00,Wunderground v.1.15,2013-01-09 11:04:00,
2013-01-09 05:10:00,36.5,32.4,30.25,WNW,292,5.0,5.0,85,0.00,,,0.00,Wunderground v.1.15,2013-01-09 11:10:00,
2013-01-09 05:15:00,36.3,32.2,30.26,WNW,292,5.0,16.0,85,0.00,,,0.00,Wunderground v.1.15,2013-01-09 11:15:00,
2013-01-09 05:21:00,35.8,31.7,30.26,WNW,292,5.0,6.0,85,0.00,,,0.00,Wunderground v.1.15,2013-01-09 11:21:00,
2013-01-09 05:27:00,35.8,32.0,30.26,WNW,292,5.0,16.0,86,0.00,,,0.00,Wunderground v.1.15,2013-01-09 11:27:00,
2013-01-09 05:33:00,36.1,32.3,30.26,WNW,297,6.0,16.0,86,0.00,,,0.00,Wunderground v.1.15,2013-01-09 11:33:00,
2013-01-09 05:38:00,36.0,31.9,30.26,WNW,302,6.0,16.0,85,0.00,,,0.00,Wunderground v.1.15,2013-01-09 11:38:00,
2013-01-09 05:44:00,36.1,32.0,30.26,NW,315,6.0,16.0,85,0.00,,,0.00,Wunderground v.1.15,2013-01-09 11:44:00,
2013-01-09 05:50:00,36.1,32.0,30.27,NW,318,6.0,16.0,85,0.00,,,0.00,Wunderground v.1.15,2013-01-09 11:50:00,
2013-01-09 05:56:00,36.2,31.8,30.27,NW,317,5.0,16.0,84,0.00,,,0.00,Wunderground v.1.15,2013-01-09 11:56:00,
2013-01-09 06:01:00,36.1,31.7,30.27,NW,315,5.0,16.0,84,0.00,,,0.00,Wunderground v.1.15,2013-01-09 12:01:00,
2013-01-09 06:06:00,36.2,31.8,30.27,NW,315,5.0,16.0,84,0.00,,,0.00,Wunderground v.1.15,2013-01-09 12:06:00,
2013-01-09 06:12:00,36.1,31.7,30.27,NW,315,5.0,16.0,84,0.00,,,0.00,Wunderground v.1.15,2013-01-09 12:12:00,
2013-01-09 06:18:00,35.9,31.5,30.27,NW,315,4.0,16.0,84,0.00,,,0.00,Wunderground v.1.15,2013-01-09 12:18:00,
2013-01-09 06:24:00,35.5,31.4,30.27,NW,315,4.0,16.0,85,0.00,,,0.00,Wunderground v.1.15,2013-01-09 12:24:00,
2013-01-09 06:29:00,35.5,31.4,30.28,NW,315,4.0,16.0,85,0.00,,,0.00,Wunderground v.1.15,2013-01-09 12:29:00,
2013-01-09 06:35:00,35.6,31.5,30.28,NW,315,4.0,16.0,85,0.00,,,0.00,Wunderground v.1.15,2013-01-09 12:35:00,
2013-01-09 06:41:00,35.7,31.6,30.28,NW,315,4.0,5.0,85,0.00,,,0.00,Wunderground v.1.15,2013-01-09 12:41:00,
2013-01-09 06:48:00,35.6,31.2,30.29,NW,315,4.0,16.0,84,0.00,,,0.00,Wunderground v.1.15,2013-01-09 12:48:00,
2013-01-09 06:54:00,35.2,30.9,30.30,NW,315,4.0,16.0,84,0.00,,,0.00,Wunderground v.1.15,2013-01-09 12:54:00,
2013-01-09 07:00:00,34.5,30.5,30.30,NW,315,3.0,3.0,85,0.00,,,0.00,Wunderground v.1.15,2013-01-09 13:00:00,
2013-01-09 07:06:00,33.9,30.2,30.31,NW,315,2.0,16.0,86,0.00,,,0.00,Wunderground v.1.15,2013-01-09 13:06:00,
2013-01-09 07:11:00,33.8,30.3,30.31,NW,315,2.0,16.0,87,0.00,,,0.00,Wunderground v.1.15,2013-01-09 13:11:00,
2013-01-09 07:17:00,33.8,30.3,30.31,NW,315,3.0,16.0,87,0.00,,,0.00,Wunderground v.1.15,2013-01-09 13:17:00,
2013-01-09 07:23:00,34.1,30.6,30.31,NW,315,3.0,16.0,87,0.00,,,0.00,Wunderground v.1.15,2013-01-09 13:23:00,
2013-01-09 07:29:00,34.5,30.7,30.31,NW,315,2.0,16.0,86,0.00,,,0.00,Wunderground v.1.15,2013-01-09 13:29:00,
2013-01-09 07:35:00,34.2,30.4,30.31,NW,315,1.0,16.0,86,0.00,,,0.00,Wunderground v.1.15,2013-01-09 13:35:00,
2013-01-09 07:41:00,33.8,29.8,30.31,NW,315,1.0,16.0,85,0.00,,,0.00,Wunderground v.1.15,2013-01-09 13:41:00,
2013-01-09 07:48:00,33.9,30.4,30.31,WNW,300,3.0,16.0,87,0.00,,,0.00,Wunderground v.1.15,2013-01-09 13:48:00,
2013-01-09 07:54:00,34.2,30.7,30.31,WNW,300,4.0,16.0,87,0.00,,,0.00,Wunderground v.1.15,2013-01-09 13:54:00,
2013-01-09 08:00:00,34.4,30.9,30.32,WNW,300,3.0,16.0,87,0.00,,,0.00,Wunderground v.1.15,2013-01-09 14:00:00,
2013-01-09 08:06:00,34.9,31.1,30.33,WNW,300,2.0,16.0,86,0.00,,,0.00,Wunderground v.1.15,2013-01-09 14:06:00,
2013-01-09 08:12:00,35.1,31.0,30.33,WNW,300,0.0,16.0,85,0.00,,,0.00,Wunderground v.1.15,2013-01-09 14:12:00,
2013-01-09 08:18:00,35.2,30.9,30.33,WNW,300,1.0,16.0,84,0.00,,,0.00,Wunderground v.1.15,2013-01-09 14:18:00,
2013-01-09 08:24:00,35.4,31.0,30.34,WNW,300,2.0,16.0,84,0.00,,,0.00,Wunderground v.1.15,2013-01-09 14:24:00,
2013-01-09 08:30:00,35.5,31.1,30.35,WNW,300,2.0,2.0,84,0.00,,,0.00,Wunderground v.1.15,2013-01-09 14:30:00,
2013-01-09 08:36:00,35.6,31.2,30.35,WNW,300,2.0,16.0,84,0.00,,,0.00,Wunderground v.1.15,2013-01-09 14:36:00,
2013-01-09 08:41:00,35.6,31.2,30.36,WNW,300,2.0,16.0,84,0.00,,,0.00,Wunderground v.1.15,2013-01-09 14:41:00,
2013-01-09 08:47:00,35.8,31.4,30.36,WNW,300,3.0,16.0,84,0.00,,,0.00,Wunderground v.1.15,2013-01-09 14:47:00,
2013-01-09 08:53:00,36.2,31.8,30.36,WNW,300,2.0,16.0,84,0.00,,,0.00,Wunderground v.1.15,2013-01-09 14:53:00,
2013-01-09 08:59:00,36.8,32.1,30.36,WNW,300,2.0,16.0,83,0.00,,,0.00,Wunderground v.1.15,2013-01-09 14:59:00,
2013-01-09 09:04:00,37.3,32.3,30.37,WNW,300,2.0,16.0,82,0.00,,,0.00,Wunderground v.1.15,2013-01-09 15:04:00,
2013-01-09 09:10:00,37.8,32.5,30.37,WNW,300,3.0,16.0,81,0.00,,,0.00,Wunderground v.1.15,2013-01-09 15:10:00,
2013-01-09 09:16:00,38.2,32.9,30.37,WNW,300,3.0,16.0,81,0.00,,,0.00,Wunderground v.1.15,2013-01-09 15:16:00,
2013-01-09 09:22:00,38.6,32.6,30.37,NW,322,3.0,16.0,79,0.00,,,0.00,Wunderground v.1.15,2013-01-09 15:22:00,
2013-01-09 09:27:00,39.0,33.0,30.38,NW,322,3.0,16.0,79,0.00,,,0.00,Wunderground v.1.15,2013-01-09 15:27:00,
2013-01-09 09:33:00,39.4,33.1,30.38,NW,322,2.0,16.0,78,0.00,,,0.00,Wunderground v.1.15,2013-01-09 15:33:00,
2013-01-09 09:39:00,39.7,33.4,30.38,NW,322,2.0,16.0,78,0.00,,,0.00,Wunderground v.1.15,2013-01-09 15:39:00,
2013-01-09 09:45:00,40.2,33.6,30.39,NW,322,1.0,16.0,77,0.00,,,0.00,Wunderground v.1.15,2013-01-09 15:45:00,
2013-01-09 09:51:00,40.6,33.6,30.39,NNE,28,1.0,16.0,76,0.00,,,0.00,Wunderground v.1.15,2013-01-09 15:51:00,
2013-01-09 09:57:00,41.0,33.7,30.39,ENE,63,2.0,16.0,75,0.00,,,0.00,Wunderground v.1.15,2013-01-09 15:57:00,
2013-01-09 10:03:00,41.4,34.1,30.40,ENE,63,1.0,16.0,75,0.00,,,0.00,Wunderground v.1.15,2013-01-09 16:03:00,
2013-01-09 10:08:00,41.8,34.1,30.40,NNE,28,1.0,16.0,74,0.00,,,0.00,Wunderground v.1.15,2013-01-09 16:08:00,
2013-01-09 10:14:00,42.4,34.4,30.41,NNW,337,2.0,16.0,73,0.00,,,0.00,Wunderground v.1.15,2013-01-09 16:14:00,
2013-01-09 10:20:00,43.1,34.7,30.41,West,281,2.0,2.0,72,0.00,,,0.00,Wunderground v.1.15,2013-01-09 16:20:00,
2013-01-09 10:26:00,43.4,34.6,30.41,NE,40,2.0,16.0,71,0.00,,,0.00,Wunderground v.1.15,2013-01-09 16:26:00,
2013-01-09 10:31:00,43.7,34.9,30.41,NE,37,2.0,16.0,71,0.00,,,0.00,Wunderground v.1.15,2013-01-09 16:31:00,
2013-01-09 10:37:00,43.9,35.5,30.41,NE,56,3.0,16.0,72,0.00,,,0.00,Wunderground v.1.15,2013-01-09 16:37:00,
2013-01-09 10:43:00,44.3,35.8,30.41,ENE,76,2.0,16.0,72,0.00,,,0.00,Wunderground v.1.15,2013-01-09 16:43:00,
2013-01-09 10:49:00,44.9,36.1,30.41,NNE,27,2.0,16.0,71,0.00,,,0.00,Wunderground v.1.15,2013-01-09 16:49:00,
2013-01-09 10:54:00,45.2,36.4,30.42,NE,56,3.0,16.0,71,0.00,,,0.00,Wunderground v.1.15,2013-01-09 16:54:00,
2013-01-09 11:00:00,45.4,36.2,30.41,ENE,67,5.0,16.0,70,0.00,,,0.00,Wunderground v.1.15,2013-01-09 17:00:00,
2013-01-09 11:06:00,45.5,35.9,30.41,ENE,57,6.0,16.0,69,0.00,,,0.00,Wunderground v.1.15,2013-01-09 17:06:00,
2013-01-09 11:11:00,46.0,36.0,30.41,ENE,71,6.0,16.0,68,0.00,,,0.00,Wunderground v.1.15,2013-01-09 17:11:00,
2013-01-09 11:17:00,46.3,35.9,30.41,East,84,4.0,16.0,67,0.00,,,0.00,Wunderground v.1.15,2013-01-09 17:17:00,
2013-01-09 11:23:00,46.7,35.9,30.41,ENE,59,4.0,16.0,66,0.00,,,0.00,Wunderground v.1.15,2013-01-09 17:23:00,
2013-01-09 11:29:00,47.0,36.2,30.41,ENE,61,3.0,16.0,66,0.00,,,0.00,Wunderground v.1.15,2013-01-09 17:29:00,
2013-01-09 11:34:00,47.3,36.1,30.40,NE,42,3.0,16.0,65,0.00,,,0.00,Wunderground v.1.15,2013-01-09 17:34:00,
2013-01-09 11:40:00,47.5,36.3,30.40,NE,44,4.0,16.0,65,0.00,,,0.00,Wunderground v.1.15,2013-01-09 17:40:00,
2013-01-09 11:46:00,48.0,37.2,30.40,ENE,71,3.0,16.0,66,0.00,,,0.00,Wunderground v.1.15,2013-01-09 17:46:00,
2013-01-09 11:52:00,48.4,36.8,30.39,NE,46,2.0,16.0,64,0.00,,,0.00,Wunderground v.1.15,2013-01-09 17:52:00,
2013-01-09 11:57:00,48.8,37.2,30.39,North,10,1.0,16.0,64,0.00,,,0.00,Wunderground v.1.15,2013-01-09 17:57:00,
2013-01-09 12:03:00,49.4,37.3,30.39,East,88,1.0,16.0,63,0.00,,,0.00,Wunderground v.1.15,2013-01-09 18:03:00,
2013-01-09 12:09:00,49.6,37.1,30.39,East,82,2.0,16.0,62,0.00,,,0.00,Wunderground v.1.15,2013-01-09 18:09:00,
2013-01-09 12:15:00,50.0,37.1,30.39,ENE,59,2.0,16.0,61,0.00,,,0.00,Wunderground v.1.15,2013-01-09 18:15:00,
2013-01-09 12:21:00,50.1,35.9,30.39,NE,39,3.0,16.0,58,0.00,,,0.00,Wunderground v.1.15,2013-01-09 18:21:00,
2013-01-09 12:27:00,50.3,35.2,30.39,NE,53,4.0,16.0,56,0.00,,,0.00,Wunderground v.1.15,2013-01-09 18:27:00,
2013-01-09 12:33:00,50.4,35.7,30.39,ENE,69,5.0,16.0,57,0.00,,,0.00,Wunderground v.1.15,2013-01-09 18:33:00,
2013-01-09 12:38:00,50.3,36.1,30.39,East,80,4.0,16.0,58,0.00,,,0.00,Wunderground v.1.15,2013-01-09 18:38:00,
2013-01-09 12:42:00,50.2,34.6,30.39,ENE,58,4.0,16.0,55,0.00,,,0.00,Wunderground v.1.15,2013-01-09 18:42:00,
2013-01-09 12:43:00,50.1,35.0,30.39,ENE,62,5.0,16.0,56,0.00,,,0.00,Wunderground v.1.15,2013-01-09 18:43:00,
2013-01-09 12:44:00,50.1,35.0,30.39,ENE,76,5.0,16.0,56,0.00,,,0.00,Wunderground v.1.15,2013-01-09 18:44:00,
2013-01-09 12:47:00,50.1,36.7,30.39,ENE,75,5.0,16.0,60,0.00,,,0.00,Wunderground v.1.15,2013-01-09 18:47:00,
2013-01-09 12:49:00,50.3,36.9,30.39,ENE,65,4.0,16.0,60,0.00,,,0.00,Wunderground v.1.15,2013-01-09 18:49:00,
2013-01-09 12:51:00,50.3,35.6,30.39,NW,323,4.0,16.0,57,0.00,,,0.00,Wunderground v.1.15,2013-01-09 18:51:00,
2013-01-09 12:52:00,50.4,36.2,30.39,NNW,342,4.0,16.0,58,0.00,,,0.00,Wunderground v.1.15,2013-01-09 18:52:00,
2013-01-09 12:58:00,50.5,34.9,30.39,NE,49,3.0,16.0,55,0.00,,,0.00,Wunderground v.1.15,2013-01-09 18:58:00,
2013-01-09 13:04:00,50.4,34.8,30.39,ENE,67,5.0,16.0,55,0.00,,,0.00,Wunderground v.1.15,2013-01-09 19:04:00,
2013-01-09 13:09:00,50.4,34.8,30.39,ENE,63,6.0,16.0,55,0.00,,,0.00,Wunderground v.1.15,2013-01-09 19:09:00,
2013-01-09 13:15:00,50.3,34.3,30.39,NE,55,6.0,16.0,54,0.00,,,0.00,Wunderground v.1.15,2013-01-09 19:15:00,
2013-01-09 13:21:00,50.3,33.8,30.39,NE,51,7.0,16.0,53,0.00,,,0.00,Wunderground v.1.15,2013-01-09 19:21:00,
2013-01-09 13:26:00,50.2,34.2,30.39,ENE,57,7.0,16.0,54,0.00,,,0.00,Wunderground v.1.15,2013-01-09 19:26:00,
2013-01-09 13:32:00,50.2,34.2,30.39,NE,42,7.0,16.0,54,0.00,,,0.00,Wunderground v.1.15,2013-01-09 19:32:00,
2013-01-09 13:38:00,50.3,34.3,30.39,NE,53,6.0,16.0,54,0.00,,,0.00,Wunderground v.1.15,2013-01-09 19:38:00,
2013-01-09 13:44:00,50.1,34.5,30.39,NE,53,5.0,16.0,55,0.00,,,0.00,Wunderground v.1.15,2013-01-09 19:44:00,
2013-01-09 13:50:00,50.0,34.5,30.39,ENE,61,4.0,16.0,55,0.00,,,0.00,Wunderground v.1.15,2013-01-09 19:50:00,
2013-01-09 13:56:00,50.0,34.9,30.39,ENE,62,4.0,16.0,56,0.00,,,0.00,Wunderground v.1.15,2013-01-09 19:56:00,
2013-01-09 14:01:00,50.2,34.6,30.39,ENE,77,5.0,16.0,55,0.00,,,0.00,Wunderground v.1.15,2013-01-09 20:01:00,
2013-01-09 14:06:00,50.2,34.6,30.39,ENE,67,5.0,16.0,55,0.00,,,0.00,Wunderground v.1.15,2013-01-09 20:06:00,
2013-01-09 14:12:00,50.3,36.1,30.39,NE,46,4.0,16.0,58,0.00,,,0.00,Wunderground v.1.15,2013-01-09 20:12:00,
2013-01-09 14:18:00,50.5,34.0,30.40,NE,51,4.0,16.0,53,0.00,,,0.00,Wunderground v.1.15,2013-01-09 20:18:00,
2013-01-09 14:24:00,50.6,34.1,30.40,NE,51,5.0,16.0,53,0.00,,,0.00,Wunderground v.1.15,2013-01-09 20:24:00,
2013-01-09 14:29:00,50.7,34.6,30.40,ENE,62,4.0,16.0,54,0.00,,,0.00,Wunderground v.1.15,2013-01-09 20:29:00,
2013-01-09 14:34:00,50.8,35.2,30.40,ENE,67,3.0,16.0,55,0.00,,,0.00,Wunderground v.1.15,2013-01-09 20:34:00,
2013-01-09 14:40:00,51.0,34.5,30.40,NE,51,1.0,1.0,53,0.00,,,0.00,Wunderground v.1.15,2013-01-09 20:40:00,
2013-01-09 14:46:00,51.3,35.7,30.41,NE,51,1.0,16.0,55,0.00,,,0.00,Wunderground v.1.15,2013-01-09 20:46:00,
2013-01-09 14:51:00,51.4,35.3,30.41,NE,51,1.0,16.0,54,0.00,,,0.00,Wunderground v.1.15,2013-01-09 20:51:00,
2013-01-09 14:57:00,51.6,35.9,30.41,NE,51,1.0,16.0,55,0.00,,,0.00,Wunderground v.1.15,2013-01-09 20:57:00,
2013-01-09 15:03:00,51.5,34.9,30.41,East,84,3.0,16.0,53,0.00,,,0.00,Wunderground v.1.15,2013-01-09 21:03:00,
2013-01-09 15:09:00,51.2,34.2,30.41,ENE,74,3.0,16.0,52,0.00,,,0.00,Wunderground v.1.15,2013-01-09 21:09:00,
2013-01-09 15:15:00,50.9,33.4,30.41,East,81,4.0,16.0,51,0.00,,,0.00,Wunderground v.1.15,2013-01-09 21:15:00,
2013-01-09 15:21:00,50.8,33.3,30.41,East,79,5.0,16.0,51,0.00,,,0.00,Wunderground v.1.15,2013-01-09 21:21:00,
2013-01-09 15:27:00,50.6,33.1,30.41,East,80,4.0,16.0,51,0.00,,,0.00,Wunderground v.1.15,2013-01-09 21:27:00,
2013-01-09 15:33:00,50.6,33.1,30.41,East,82,3.0,16.0,51,0.00,,,0.00,Wunderground v.1.15,2013-01-09 21:33:00,
2013-01-09 15:38:00,50.6,33.6,30.41,ENE,76,3.0,16.0,52,0.00,,,0.00,Wunderground v.1.15,2013-01-09 21:38:00,
2013-01-09 15:44:00,50.4,34.4,30.41,East,95,2.0,16.0,54,0.00,,,0.00,Wunderground v.1.15,2013-01-09 21:44:00,
2013-01-09 15:50:00,50.3,33.8,30.41,East,86,1.0,16.0,53,0.00,,,0.00,Wunderground v.1.15,2013-01-09 21:50:00,
2013-01-09 15:56:00,50.3,33.8,30.41,East,96,1.0,16.0,53,0.00,,,0.00,Wunderground v.1.15,2013-01-09 21:56:00,
2013-01-09 16:02:00,50.3,34.3,30.41,East,96,1.0,16.0,54,0.00,,,0.00,Wunderground v.1.15,2013-01-09 22:02:00,
2013-01-09 16:08:00,50.0,35.8,30.42,East,96,1.0,16.0,58,0.00,,,0.00,Wunderground v.1.15,2013-01-09 22:08:00,
2013-01-09 16:15:00,49.2,36.3,30.42,East,96,1.0,16.0,61,0.00,,,0.00,Wunderground v.1.15,2013-01-09 22:15:00,
2013-01-09 16:21:00,48.6,35.7,30.42,East,96,1.0,16.0,61,0.00,,,0.00,Wunderground v.1.15,2013-01-09 22:21:00,
2013-01-09 16:26:00,48.1,35.7,30.42,East,96,1.0,16.0,62,0.00,,,0.00,Wunderground v.1.15,2013-01-09 22:26:00,
2013-01-09 16:32:00,47.4,34.6,30.42,East,96,0.0,16.0,61,0.00,,,0.00,Wunderground v.1.15,2013-01-09 22:32:00,
2013-01-09 16:38:00,46.9,34.1,30.42,East,96,1.0,16.0,61,0.00,,,0.00,Wunderground v.1.15,2013-01-09 22:38:00,
2013-01-09 16:44:00,46.3,34.4,30.42,East,96,1.0,16.0,63,0.00,,,0.00,Wunderground v.1.15,2013-01-09 22:44:00,
2013-01-09 16:50:00,45.1,33.6,30.42,East,96,1.0,16.0,64,0.00,,,0.00,Wunderground v.1.15,2013-01-09 22:50:00,
2013-01-09 16:56:00,44.5,33.5,30.42,East,96,1.0,16.0,65,0.00,,,0.00,Wunderground v.1.15,2013-01-09 22:56:00,
2013-01-09 17:02:00,44.3,32.9,30.42,East,96,1.0,16.0,64,0.00,,,0.00,Wunderground v.1.15,2013-01-09 23:02:00,
2013-01-09 17:07:00,44.1,32.7,30.42,East,96,0.0,16.0,64,0.00,,,0.00,Wunderground v.1.15,2013-01-09 23:07:00,
2013-01-09 17:13:00,44.3,32.5,30.41,East,96,0.0,16.0,63,0.00,,,0.00,Wunderground v.1.15,2013-01-09 23:13:00,
2013-01-09 17:19:00,44.7,32.1,30.41,East,96,0.0,16.0,61,0.00,,,0.00,Wunderground v.1.15,2013-01-09 23:19:00,
2013-01-09 17:25:00,44.5,31.9,30.41,East,96,1.0,16.0,61,0.00,,,0.00,Wunderground v.1.15,2013-01-09 23:25:00,
2013-01-09 17:30:00,44.0,31.8,30.42,East,96,1.0,1.0,62,0.00,,,0.00,Wunderground v.1.15,2013-01-09 23:30:00,
2013-01-09 17:36:00,43.3,31.1,30.42,East,96,0.0,16.0,62,0.00,,,0.00,Wunderground v.1.15,2013-01-09 23:36:00,
2013-01-09 17:42:00,43.1,31.4,30.42,East,96,0.0,16.0,63,0.00,,,0.00,Wunderground v.1.15,2013-01-09 23:42:00,
2013-01-09 17:48:00,43.0,31.3,30.42,East,96,0.0,16.0,63,0.00,,,0.00,Wunderground v.1.15,2013-01-09 23:48:00,
2013-01-09 17:54:00,42.7,31.4,30.42,East,96,1.0,16.0,64,0.00,,,0.00,Wunderground v.1.15,2013-01-09 23:54:00,
2013-01-09 18:00:00,42.5,31.6,30.42,East,96,0.0,16.0,65,0.00,,,0.00,Wunderground v.1.15,2013-01-10 00:00:00,
2013-01-09 18:06:00,42.6,31.7,30.42,East,96,0.0,16.0,65,0.00,,,0.00,Wunderground v.1.15,2013-01-10 00:06:00,
2013-01-09 18:12:00,42.7,32.1,30.42,East,96,0.0,16.0,66,0.00,,,0.00,Wunderground v.1.15,2013-01-10 00:12:00,
2013-01-09 18:17:00,42.8,32.2,30.42,East,96,0.0,16.0,66,0.00,,,0.00,Wunderground v.1.15,2013-01-10 00:17:00,
2013-01-09 18:23:00,42.1,31.6,30.43,East,96,0.0,16.0,66,0.00,,,0.00,Wunderground v.1.15,2013-01-10 00:23:00,
2013-01-09 18:29:00,41.7,32.3,30.43,East,96,0.0,16.0,69,0.00,,,0.00,Wunderground v.1.15,2013-01-10 00:29:00,
2013-01-09 18:35:00,41.6,32.5,30.43,East,96,0.0,16.0,70,0.00,,,0.00,Wunderground v.1.15,2013-01-10 00:35:00,
2013-01-09 18:40:00,41.5,32.4,30.43,East,96,0.0,16.0,70,0.00,,,0.00,Wunderground v.1.15,2013-01-10 00:40:00,
2013-01-09 18:46:00,41.5,32.8,30.44,East,96,0.0,16.0,71,0.00,,,0.00,Wunderground v.1.15,2013-01-10 00:46:00,
2013-01-09 18:52:00,41.4,33.0,30.44,East,96,0.0,16.0,72,0.00,,,0.00,Wunderground v.1.15,2013-01-10 00:52:00,
2013-01-09 18:58:00,41.4,33.0,30.44,East,96,0.0,16.0,72,0.00,,,0.00,Wunderground v.1.15,2013-01-10 00:58:00,
2013-01-09 19:03:00,41.3,33.0,30.44,East,96,0.0,16.0,72,0.00,,,0.00,Wunderground v.1.15,2013-01-10 01:03:00,
2013-01-09 19:09:00,41.5,33.1,30.44,East,96,0.0,16.0,72,0.00,,,0.00,Wunderground v.1.15,2013-01-10 01:09:00,
2013-01-09 19:15:00,41.7,33.3,30.45,SE,143,1.0,16.0,72,0.00,,,0.00,Wunderground v.1.15,2013-01-10 01:15:00,
2013-01-09 19:21:00,41.8,33.1,30.45,SE,143,0.0,16.0,71,0.00,,,0.00,Wunderground v.1.15,2013-01-10 01:21:00,
2013-01-09 19:26:00,41.6,32.9,30.45,SE,143,0.0,16.0,71,0.00,,,0.00,Wunderground v.1.15,2013-01-10 01:26:00,
2013-01-09 19:32:00,41.3,32.2,30.45,SE,143,0.0,16.0,70,0.00,,,0.00,Wunderground v.1.15,2013-01-10 01:32:00,
2013-01-09 19:37:00,41.2,32.5,30.45,SE,143,0.0,16.0,71,0.00,,,0.00,Wunderground v.1.15,2013-01-10 01:37:00,
2013-01-09 19:43:00,40.8,32.1,30.44,SE,143,1.0,16.0,71,0.00,,,0.00,Wunderground v.1.15,2013-01-10 01:43:00,
2013-01-09 19:48:00,40.5,32.2,30.44,SE,143,0.0,16.0,72,0.00,,,0.00,Wunderground v.1.15,2013-01-10 01:48:00,
2013-01-09 19:54:00,40.1,32.1,30.45,SE,143,0.0,16.0,73,0.00,,,0.00,Wunderground v.1.15,2013-01-10 01:54:00,
2013-01-09 20:00:00,39.7,31.8,30.45,SE,144,0.0,16.0,73,0.00,,,0.00,Wunderground v.1.15,2013-01-10 02:00:00,
2013-01-09 20:06:00,39.2,31.6,30.45,SE,144,0.0,16.0,74,0.00,,,0.00,Wunderground v.1.15,2013-01-10 02:06:00,
2013-01-09 20:11:00,38.8,31.9,30.45,SE,144,0.0,16.0,76,0.00,,,0.00,Wunderground v.1.15,2013-01-10 02:11:00,
2013-01-09 20:17:00,38.7,31.8,30.45,SE,144,0.0,16.0,76,0.00,,,0.00,Wunderground v.1.15,2013-01-10 02:17:00,
2013-01-09 20:23:00,38.6,31.7,30.45,SE,144,0.0,16.0,76,0.00,,,0.00,Wunderground v.1.15,2013-01-10 02:23:00,
2013-01-09 20:29:00,38.5,31.9,30.45,SE,144,0.0,16.0,77,0.00,,,0.00,Wunderground v.1.15,2013-01-10 02:29:00,
2013-01-09 20:35:00,38.5,31.9,30.45,SE,144,0.0,16.0,77,0.00,,,0.00,Wunderground v.1.15,2013-01-10 02:35:00,
2013-01-09 20:40:00,38.4,31.8,30.45,SE,144,0.0,16.0,77,0.00,,,0.00,Wunderground v.1.15,2013-01-10 02:40:00,
2013-01-09 20:46:00,38.4,31.8,30.45,SE,144,0.0,16.0,77,0.00,,,0.00,Wunderground v.1.15,2013-01-10 02:46:00,
2013-01-09 20:52:00,38.3,31.7,30.45,SE,144,0.0,16.0,77,0.00,,,0.00,Wunderground v.1.15,2013-01-10 02:52:00,
2013-01-09 20:57:00,37.9,31.7,30.46,SE,144,0.0,16.0,78,0.00,,,0.00,Wunderground v.1.15,2013-01-10 02:57:00,
2013-01-09 21:03:00,37.7,31.5,30.46,SE,144,0.0,16.0,78,0.00,,,0.00,Wunderground v.1.15,2013-01-10 03:03:00,
2013-01-09 21:09:00,37.7,31.8,30.46,SE,144,0.0,16.0,79,0.00,,,0.00,Wunderground v.1.15,2013-01-10 03:09:00,
2013-01-09 21:15:00,37.6,31.7,30.46,SE,144,1.0,16.0,79,0.00,,,0.00,Wunderground v.1.15,2013-01-10 03:15:00,
2013-01-09 21:20:00,37.7,31.8,30.46,SE,144,1.0,1.0,79,0.00,,,0.00,Wunderground v.1.15,2013-01-10 03:20:00,
2013-01-09 21:26:00,37.8,31.6,30.45,SE,144,1.0,16.0,78,0.00,,,0.00,Wunderground v.1.15,2013-01-10 03:26:00,
2013-01-09 21:32:00,37.9,31.7,30.45,SSE,154,3.0,16.0,78,0.00,,,0.00,Wunderground v.1.15,2013-01-10 03:32:00,
2013-01-09 21:38:00,38.4,31.8,30.46,SE,139,4.0,16.0,77,0.00,,,0.00,Wunderground v.1.15,2013-01-10 03:38:00,
2013-01-09 21:43:00,38.7,31.8,30.46,SE,139,3.0,16.0,76,0.00,,,0.00,Wunderground v.1.15,2013-01-10 03:43:00,
2013-01-09 21:49:00,38.7,31.5,30.45,SE,146,3.0,16.0,75,0.00,,,0.00,Wunderground v.1.15,2013-01-10 03:49:00,
2013-01-09 21:55:00,38.4,31.2,30.45,SE,130,4.0,16.0,75,0.00,,,0.00,Wunderground v.1.15,2013-01-10 03:55:00,
2013-01-09 22:01:00,38.0,30.8,30.45,SSE,149,4.0,16.0,75,0.00,,,0.00,Wunderground v.1.15,2013-01-10 04:01:00,
2013-01-09 22:06:00,38.1,30.9,30.45,SSE,150,4.0,16.0,75,0.00,,,0.00,Wunderground v.1.15,2013-01-10 04:06:00,
2013-01-09 22:12:00,38.0,30.8,30.45,SE,131,5.0,16.0,75,0.00,,,0.00,Wunderground v.1.15,2013-01-10 04:12:00,
2013-01-09 22:18:00,37.4,30.5,30.44,SE,129,5.0,16.0,76,0.00,,,0.00,Wunderground v.1.15,2013-01-10 04:18:00,
2013-01-09 22:23:00,37.3,30.7,30.44,SE,146,5.0,16.0,77,0.00,,,0.00,Wunderground v.1.15,2013-01-10 04:23:00,
2013-01-09 22:29:00,37.4,30.8,30.44,SE,139,5.0,16.0,77,0.00,,,0.00,Wunderground v.1.15,2013-01-10 04:29:00,
2013-01-09 22:35:00,37.3,30.7,30.44,SSE,148,4.0,16.0,77,0.00,,,0.00,Wunderground v.1.15,2013-01-10 04:35:00,
2013-01-09 22:41:00,37.6,31.0,30.43,SSE,153,4.0,16.0,77,0.00,,,0.00,Wunderground v.1.15,2013-01-10 04:41:00,
2013-01-09 22:46:00,37.3,30.7,30.43,SE,136,4.0,16.0,77,0.00,,,0.00,Wunderground v.1.15,2013-01-10 04:46:00,
2013-01-09 22:52:00,37.1,30.9,30.43,SE,146,3.0,16.0,78,0.00,,,0.00,Wunderground v.1.15,2013-01-10 04:52:00,
2013-01-09 22:58:00,37.3,31.1,30.43,SSE,158,2.0,16.0,78,0.00,,,0.00,Wunderground v.1.15,2013-01-10 04:58:00,
2013-01-09 23:01:00,37.4,31.2,30.43,SSE,158,2.0,16.0,78,0.00,,,0.00,Wunderground v.1.15,2013-01-10 05:01:00,
2013-01-09 23:02:00,37.4,30.8,30.44,SSE,158,2.0,16.0,77,0.00,,,0.00,Wunderground v.1.15,2013-01-10 05:02:00,
2013-01-09 23:04:00,37.3,30.7,30.44,SSE,158,2.0,16.0,77,0.00,,,0.00,Wunderground v.1.15,2013-01-10 05:04:00,
2013-01-09 23:06:00,37.1,30.9,30.43,SSE,158,3.0,16.0,78,0.00,,,0.00,Wunderground v.1.15,2013-01-10 05:06:00,
2013-01-09 23:11:00,36.9,30.7,30.43,SSE,160,3.0,16.0,78,0.00,,,0.00,Wunderground v.1.15,2013-01-10 05:11:00,
2013-01-09 23:17:00,36.8,30.9,30.43,SSE,158,2.0,16.0,79,0.00,,,0.00,Wunderground v.1.15,2013-01-10 05:17:00,
2013-01-09 23:23:00,36.9,31.0,30.44,South,174,1.0,16.0,79,0.00,,,0.00,Wunderground v.1.15,2013-01-10 05:23:00,
2013-01-09 23:29:00,36.6,30.4,30.44,South,177,2.0,16.0,78,0.00,,,0.00,Wunderground v.1.15,2013-01-10 05:29:00,
2013-01-09 23:34:00,36.1,30.2,30.44,South,177,1.0,16.0,79,0.00,,,0.00,Wunderground v.1.15,2013-01-10 05:34:00,
2013-01-09 23:40:00,35.5,29.9,30.44,South,177,0.0,16.0,80,0.00,,,0.00,Wunderground v.1.15,2013-01-10 05:40:00,
2013-01-09 23:46:00,35.2,30.0,30.43,South,177,0.0,16.0,81,0.00,,,0.00,Wunderground v.1.15,2013-01-10 05:46:00,
2013-01-09 23:52:00,35.3,30.1,30.43,South,177,0.0,16.0,81,0.00,,,0.00,Wunderground v.1.15,2013-01-10 05:52:00,
2013-01-09 23:57:00,35.4,30.5,30.43,South,177,0.0,16.0,82,0.00,,,0.00,Wunderground v.1.15,2013-01-10 05:57:00,